Time,TemperatureF,DewpointF,PressureIn,WindDirection,WindDirectionDegrees,WindSpeedMPH,WindSpeedGustMPH,Humidity,HourlyPrecipIn,Conditions,Clouds,dailyrainin,SoftwareType,DateUTC
2013-09-16 00:01:00,53.2,47.9,30.26,SE,135,0.0,0.0,82,0.00,,,0.00,WUHU21636XXSP,2013-09-16 05:01:00,
2013-09-16 00:06:00,53.2,47.9,30.27,SE,135,0.0,0.0,82,0.00,,,0.00,WUHU21636XXSP,2013-09-16 05:06:00,
2013-09-16 00:11:00,53.2,47.9,30.27,SE,135,0.0,0.0,82,0.00,,,0.00,WUHU21636XXSP,2013-09-16 05:11:00,
2013-09-16 00:16:00,53.2,47.9,30.27,SE,135,0.0,0.0,82,0.00,,,0.00,WUHU21636XXSP,2013-09-16 05:16:00,
2013-09-16 00:21:00,53.0,47.7,30.27,SE,135,0.0,0.0,82,0.00,,,0.00,WUHU21636XXSP,2013-09-16 05:21:00,
2013-09-16 00:26:00,53.0,47.7,30.27,SE,135,0.0,0.0,82,0.00,,,0.00,WUHU21636XXSP,2013-09-16 05:26:00,
2013-09-16 00:31:00,53.0,47.7,30.27,SE,135,0.0,0.0,82,0.00,,,0.00,WUHU21636XXSP,2013-09-16 05:31:00,
2013-09-16 00:36:00,53.0,47.7,30.27,SE,135,0.0,0.0,82,0.00,,,0.00,WUHU21636XXSP,2013-09-16 05:36:00,
2013-09-16 00:41:00,53.0,48.0,30.27,SE,135,0.0,0.0,83,0.00,,,0.00,WUHU21636XXSP,2013-09-16 05:41:00,
2013-09-16 00:46:00,53.2,48.2,30.28,SE,135,0.0,0.0,83,0.00,,,0.00,WUHU21636XXSP,2013-09-16 05:46:00,
2013-09-16 00:51:00,53.2,48.2,30.28,SE,135,0.0,0.0,83,0.00,,,0.00,WUHU21636XXSP,2013-09-16 05:51:00,
2013-09-16 00:56:00,53.4,48.4,30.28,SE,135,0.0,0.0,83,0.00,,,0.00,WUHU21636XXSP,2013-09-16 05:56:00,
2013-09-16 01:01:00,53.4,48.4,30.28,SE,135,0.0,0.0,83,0.00,,,0.00,WUHU21636XXSP,2013-09-16 06:01:00,
2013-09-16 01:06:00,53.4,48.4,30.28,SE,135,0.0,0.0,83,0.00,,,0.00,WUHU21636XXSP,2013-09-16 06:06:00,
2013-09-16 01:11:00,53.4,48.4,30.28,SE,135,0.0,0.0,83,0.00,,,0.00,WUHU21636XXSP,2013-09-16 06:11:00,
2013-09-16 01:16:00,53.4,48.4,30.28,SE,135,0.0,0.0,83,0.00,,,0.00,WUHU21636XXSP,2013-09-16 06:16:00,
2013-09-16 01:21:00,53.5,48.5,30.29,SE,135,0.0,0.0,83,0.00,,,0.00,WUHU21636XXSP,2013-09-16 06:21:00,
2013-09-16 01:26:00,53.4,48.1,30.29,SE,135,0.0,0.0,82,0.00,,,0.00,WUHU21636XXSP,2013-09-16 06:26:00,
2013-09-16 01:31:00,53.5,48.2,30.29,SE,135,0.0,0.0,82,0.00,,,0.00,WUHU21636XXSP,2013-09-16 06:31:00,
2013-09-16 01:36:00,53.5,48.2,30.29,SE,135,0.0,0.0,82,0.00,,,0.00,WUHU21636XXSP,2013-09-16 06:36:00,
2013-09-16 01:41:00,53.5,48.2,30.29,SE,135,0.0,0.0,82,0.00,,,0.00,WUHU21636XXSP,2013-09-16 06:41:00,
2013-09-16 01:46:00,53.5,48.2,30.29,SE,135,0.0,0.0,82,0.00,,,0.00,WUHU21636XXSP,2013-09-16 06:46:00,
2013-09-16 01:51:00,53.5,48.2,30.29,SE,135,0.0,0.0,82,0.00,,,0.00,WUHU21636XXSP,2013-09-16 06:51:00,
2013-09-16 01:56:00,53.5,48.2,30.30,SE,135,0.0,0.0,82,0.00,,,0.00,WUHU21636XXSP,2013-09-16 06:56:00,
2013-09-16 02:01:00,53.5,47.9,30.30,SE,135,0.0,0.0,81,0.00,,,0.00,WUHU21636XXSP,2013-09-16 07:01:00,
2013-09-16 02:06:00,53.5,47.9,30.30,SE,135,0.0,0.0,81,0.00,,,0.00,WUHU21636XXSP,2013-09-16 07:06:00,
2013-09-16 02:11:00,53.5,47.9,30.30,SE,135,0.0,0.0,81,0.00,,,0.00,WUHU21636XXSP,2013-09-16 07:11:00,
2013-09-16 02:16:00,53.5,47.9,30.30,SE,135,0.0,0.0,81,0.00,,,0.00,WUHU21636XXSP,2013-09-16 07:16:00,
2013-09-16 02:21:00,53.5,47.6,30.30,SE,135,0.0,0.0,80,0.00,,,0.00,WUHU21636XXSP,2013-09-16 07:21:00,
2013-09-16 02:26:00,53.5,47.6,30.30,SE,135,0.0,0.0,80,0.00,,,0.00,WUHU21636XXSP,2013-09-16 07:26:00,
2013-09-16 02:31:00,53.4,47.5,30.30,SE,135,0.0,0.0,80,0.00,,,0.00,WUHU21636XXSP,2013-09-16 07:31:00,
2013-09-16 02:36:00,53.4,47.5,30.30,SE,135,0.0,0.0,80,0.00,,,0.00,WUHU21636XXSP,2013-09-16 07:36:00,
2013-09-16 02:41:00,53.4,47.5,30.30,SE,135,0.0,0.0,80,0.00,,,0.00,WUHU21636XXSP,2013-09-16 07:41:00,
2013-09-16 02:46:00,53.2,46.9,30.30,SE,135,0.0,0.0,79,0.00,,,0.00,WUHU21636XXSP,2013-09-16 07:46:00,
2013-09-16 02:51:00,53.2,46.9,30.30,SE,135,0.0,0.0,79,0.00,,,0.00,WUHU21636XXSP,2013-09-16 07:51:00,
2013-09-16 02:56:00,53.2,46.9,30.30,SE,135,0.0,0.0,79,0.00,,,0.00,WUHU21636XXSP,2013-09-16 07:56:00,
2013-09-16 03:01:00,53.2,46.9,30.30,SE,135,0.0,0.0,79,0.00,,,0.00,WUHU21636XXSP,2013-09-16 08:01:00,
2013-09-16 03:06:00,53.0,46.7,30.31,SE,135,0.0,0.0,79,0.00,,,0.00,WUHU21636XXSP,2013-09-16 08:06:00,
2013-09-16 03:11:00,53.0,46.7,30.31,SE,135,0.0,0.0,79,0.00,,,0.00,WUHU21636XXSP,2013-09-16 08:11:00,
2013-09-16 03:16:00,52.8,46.5,30.31,SE,135,0.0,0.0,79,0.00,,,0.00,WUHU21636XXSP,2013-09-16 08:16:00,
2013-09-16 03:21:00,52.8,46.5,30.31,SE,135,0.0,0.0,79,0.00,,,0.00,WUHU21636XXSP,2013-09-16 08:21:00,
2013-09-16 03:26:00,52.8,46.5,30.30,SE,135,0.0,0.0,79,0.00,,,0.00,WUHU21636XXSP,2013-09-16 08:26:00,
2013-09-16 03:31:00,52.6,46.0,30.31,SE,135,0.0,0.0,78,0.00,,,0.00,WUHU21636XXSP,2013-09-16 08:31:00,
2013-09-16 03:36:00,52.6,46.0,30.31,SE,135,0.0,0.0,78,0.00,,,0.00,WUHU21636XXSP,2013-09-16 08:36:00,
2013-09-16 03:41:00,52.6,46.0,30.31,SE,135,0.0,0.0,78,0.00,,,0.00,WUHU21636XXSP,2013-09-16 08:41:00,
2013-09-16 03:46:00,52.6,46.0,30.31,SE,135,0.0,0.0,78,0.00,,,0.00,WUHU21636XXSP,2013-09-16 08:46:00,
2013-09-16 03:51:00,52.6,45.7,30.31,SE,135,0.0,0.0,77,0.00,,,0.00,WUHU21636XXSP,2013-09-16 08:51:00,
2013-09-16 03:56:00,52.5,45.9,30.31,SE,135,0.0,0.0,78,0.00,,,0.00,WUHU21636XXSP,2013-09-16 08:56:00,
2013-09-16 04:01:00,52.3,45.4,30.31,SE,135,0.0,0.0,77,0.00,,,0.00,WUHU21636XXSP,2013-09-16 09:01:00,
2013-09-16 04:06:00,52.3,45.7,30.31,SE,135,0.0,0.0,78,0.00,,,0.00,WUHU21636XXSP,2013-09-16 09:06:00,
2013-09-16 04:11:00,52.3,45.7,30.31,SE,135,0.0,0.0,78,0.00,,,0.00,WUHU21636XXSP,2013-09-16 09:11:00,
2013-09-16 04:16:00,52.1,45.5,30.32,SE,135,0.0,0.0,78,0.00,,,0.00,WUHU21636XXSP,2013-09-16 09:16:00,
2013-09-16 04:21:00,52.1,45.5,30.32,SE,135,0.0,0.0,78,0.00,,,0.00,WUHU21636XXSP,2013-09-16 09:21:00,
2013-09-16 04:26:00,51.9,45.3,30.32,SE,135,0.0,0.0,78,0.00,,,0.00,WUHU21636XXSP,2013-09-16 09:26:00,
2013-09-16 04:31:00,51.9,45.3,30.32,SE,135,0.0,0.0,78,0.00,,,0.00,WUHU21636XXSP,2013-09-16 09:31:00,
2013-09-16 04:36:00,51.7,45.1,30.32,SE,135,0.0,0.0,78,0.00,,,0.00,WUHU21636XXSP,2013-09-16 09:36:00,
2013-09-16 04:41:00,51.7,45.1,30.32,SE,135,0.0,0.0,78,0.00,,,0.00,WUHU21636XXSP,2013-09-16 09:41:00,
2013-09-16 04:46:00,51.7,45.1,30.32,SE,135,0.0,0.0,78,0.00,,,0.00,WUHU21636XXSP,2013-09-16 09:46:00,
2013-09-16 04:51:00,51.6,45.0,30.32,SE,135,0.0,0.0,78,0.00,,,0.00,WUHU21636XXSP,2013-09-16 09:51:00,
2013-09-16 04:56:00,51.3,44.8,30.32,SE,135,0.0,0.0,78,0.00,,,0.00,WUHU21636XXSP,2013-09-16 09:56:00,
2013-09-16 05:01:00,51.3,44.8,30.32,SE,135,0.0,0.0,78,0.00,,,0.00,WUHU21636XXSP,2013-09-16 10:01:00,
2013-09-16 05:06:00,50.9,44.4,30.33,SE,135,0.0,0.0,78,0.00,,,0.00,WUHU21636XXSP,2013-09-16 10:06:00,
2013-09-16 05:11:00,50.7,44.2,30.33,SE,135,0.0,0.0,78,0.00,,,0.00,WUHU21636XXSP,2013-09-16 10:11:00,
2013-09-16 05:16:00,50.7,44.2,30.33,SE,135,0.0,0.0,78,0.00,,,0.00,WUHU21636XXSP,2013-09-16 10:16:00,
2013-09-16 05:21:00,50.6,44.4,30.33,SE,135,0.0,0.0,79,0.00,,,0.00,WUHU21636XXSP,2013-09-16 10:21:00,
2013-09-16 05:26:00,50.4,44.2,30.33,SE,135,0.0,0.0,79,0.00,,,0.00,WUHU21636XXSP,2013-09-16 10:26:00,
2013-09-16 05:31:00,50.2,44.3,30.33,SE,135,0.0,0.0,80,0.00,,,0.00,WUHU21636XXSP,2013-09-16 10:31:00,
2013-09-16 05:36:00,50.2,44.3,30.33,SE,135,0.0,0.0,80,0.00,,,0.00,WUHU21636XXSP,2013-09-16 10:36:00,
2013-09-16 05:41:00,50.0,44.1,30.33,SE,135,0.0,0.0,80,0.00,,,0.00,WUHU21636XXSP,2013-09-16 10:41:00,
2013-09-16 05:46:00,50.0,44.1,30.34,SE,135,0.0,0.0,80,0.00,,,0.00,WUHU21636XXSP,2013-09-16 10:46:00,
2013-09-16 05:51:00,50.0,44.1,30.33,SE,135,0.0,0.0,80,0.00,,,0.00,WUHU21636XXSP,2013-09-16 10:51:00,
2013-09-16 05:56:00,50.0,44.1,30.34,SE,135,0.0,0.0,80,0.00,,,0.00,WUHU21636XXSP,2013-09-16 10:56:00,
2013-09-16 06:01:00,50.0,44.1,30.33,SE,135,0.0,0.0,80,0.00,,,0.00,WUHU21636XXSP,2013-09-16 11:01:00,
2013-09-16 06:06:00,50.0,44.4,30.34,SE,135,0.0,0.0,81,0.00,,,0.00,WUHU21636XXSP,2013-09-16 11:06:00,
2013-09-16 06:11:00,50.0,44.4,30.34,SE,135,0.0,0.0,81,0.00,,,0.00,WUHU21636XXSP,2013-09-16 11:11:00,
2013-09-16 06:16:00,50.0,44.1,30.35,SE,135,0.0,0.0,80,0.00,,,0.00,WUHU21636XXSP,2013-09-16 11:16:00,
2013-09-16 06:21:00,50.0,44.1,30.36,SE,135,0.0,0.0,80,0.00,,,0.00,WUHU21636XXSP,2013-09-16 11:21:00,
2013-09-16 06:26:00,49.8,43.6,30.36,SE,135,0.0,0.0,79,0.00,,,0.00,WUHU21636XXSP,2013-09-16 11:26:00,
2013-09-16 06:31:00,49.8,43.6,30.36,SE,135,0.0,0.0,79,0.00,,,0.00,WUHU21636XXSP,2013-09-16 11:31:00,
2013-09-16 06:36:00,49.8,43.2,30.36,SSE,157,0.0,0.0,78,0.00,,,0.00,WUHU21636XXSP,2013-09-16 11:36:00,
2013-09-16 06:41:00,49.7,43.1,30.36,SSE,157,0.0,0.0,78,0.00,,,0.00,WUHU21636XXSP,2013-09-16 11:41:00,
2013-09-16 06:46:00,49.5,42.6,30.36,SSW,202,0.0,0.0,77,0.00,,,0.00,WUHU21636XXSP,2013-09-16 11:46:00,
2013-09-16 06:51:00,49.5,42.6,30.36,SSW,202,0.0,0.0,77,0.00,,,0.00,WUHU21636XXSP,2013-09-16 11:51:00,
2013-09-16 06:56:00,49.2,42.4,30.36,SSW,202,0.0,0.0,77,0.00,,,0.00,WUHU21636XXSP,2013-09-16 11:56:00,
2013-09-16 07:01:00,49.0,42.5,30.37,SSW,202,0.0,0.0,78,0.00,,,0.00,WUHU21636XXSP,2013-09-16 12:01:00,
2013-09-16 07:06:00,49.0,42.2,30.37,SSW,202,0.0,0.0,77,0.00,,,0.00,WUHU21636XXSP,2013-09-16 12:06:00,
2013-09-16 07:11:00,48.8,42.0,30.37,SSW,202,0.0,0.0,77,0.00,,,0.00,WUHU21636XXSP,2013-09-16 12:11:00,
2013-09-16 07:16:00,48.8,42.0,30.37,SSW,202,0.0,0.0,77,0.00,,,0.00,WUHU21636XXSP,2013-09-16 12:16:00,
2013-09-16 07:21:00,48.7,41.9,30.38,SSW,202,0.0,0.0,77,0.00,,,0.00,WUHU21636XXSP,2013-09-16 12:21:00,
2013-09-16 07:26:00,48.3,41.5,30.38,SSW,202,0.0,0.0,77,0.00,,,0.00,WUHU21636XXSP,2013-09-16 12:26:00,
2013-09-16 07:31:00,48.1,41.6,30.37,SSW,202,0.0,0.0,78,0.00,,,0.00,WUHU21636XXSP,2013-09-16 12:31:00,
2013-09-16 07:36:00,48.1,41.6,30.38,SSW,202,0.0,0.0,78,0.00,,,0.00,WUHU21636XXSP,2013-09-16 12:36:00,
2013-09-16 07:41:00,48.1,41.6,30.38,SSW,202,0.0,0.0,78,0.00,,,0.00,WUHU21636XXSP,2013-09-16 12:41:00,
2013-09-16 07:46:00,48.1,41.9,30.38,SSW,202,0.0,0.0,79,0.00,,,0.00,WUHU21636XXSP,2013-09-16 12:46:00,
2013-09-16 07:51:00,48.1,41.9,30.38,SSW,202,0.0,0.0,79,0.00,,,0.00,WUHU21636XXSP,2013-09-16 12:51:00,
2013-09-16 07:56:00,47.9,41.7,30.38,SSW,202,0.0,0.0,79,0.00,,,0.00,WUHU21636XXSP,2013-09-16 12:56:00,
2013-09-16 08:01:00,47.9,41.7,30.38,SSW,202,0.0,0.0,79,0.00,,,0.00,WUHU21636XXSP,2013-09-16 13:01:00,
2013-09-16 08:06:00,47.9,42.0,30.38,SSW,202,0.0,0.0,80,0.00,,,0.00,WUHU21636XXSP,2013-09-16 13:06:00,
2013-09-16 08:11:00,47.8,41.6,30.38,SSW,202,0.0,0.0,79,0.00,,,0.00,WUHU21636XXSP,2013-09-16 13:11:00,
2013-09-16 08:16:00,47.8,41.9,30.38,SSW,202,0.0,0.0,80,0.00,,,0.00,WUHU21636XXSP,2013-09-16 13:16:00,
2013-09-16 08:21:00,47.9,42.0,30.37,SSW,202,0.0,0.0,80,0.00,,,0.00,WUHU21636XXSP,2013-09-16 13:21:00,
2013-09-16 08:26:00,47.8,41.9,30.37,ESE,112,0.0,0.0,80,0.00,,,0.00,WUHU21636XXSP,2013-09-16 13:26:00,
2013-09-16 08:31:00,47.9,41.4,30.38,ESE,112,0.0,0.0,78,0.00,,,0.00,WUHU21636XXSP,2013-09-16 13:31:00,
2013-09-16 08:36:00,48.1,41.6,30.38,SSE,157,0.0,0.0,78,0.00,,,0.00,WUHU21636XXSP,2013-09-16 13:36:00,
2013-09-16 08:41:00,48.1,41.3,30.38,ESE,112,0.0,0.0,77,0.00,,,0.00,WUHU21636XXSP,2013-09-16 13:41:00,
2013-09-16 08:46:00,48.5,41.4,30.39,ESE,112,0.0,0.0,76,0.00,,,0.00,WUHU21636XXSP,2013-09-16 13:46:00,
2013-09-16 08:51:00,48.5,41.4,30.39,ENE,67,0.0,0.0,76,0.00,,,0.00,WUHU21636XXSP,2013-09-16 13:51:00,
2013-09-16 08:56:00,48.8,41.7,30.38,ESE,112,0.0,0.0,76,0.00,,,0.00,WUHU21636XXSP,2013-09-16 13:56:00,
2013-09-16 09:01:00,49.2,42.1,30.38,ESE,112,8.0,8.0,76,0.00,,,0.00,WUHU21636XXSP,2013-09-16 14:01:00,
2013-09-16 09:06:00,49.5,42.3,30.38,SE,135,0.0,8.0,76,0.00,,,0.00,WUHU21636XXSP,2013-09-16 14:06:00,
2013-09-16 09:11:00,49.8,42.6,30.39,SE,135,0.0,0.0,76,0.00,,,0.00,WUHU21636XXSP,2013-09-16 14:11:00,
2013-09-16 09:16:00,50.0,42.1,30.39,ESE,112,0.0,0.0,74,0.00,,,0.00,WUHU21636XXSP,2013-09-16 14:16:00,
2013-09-16 09:21:00,50.2,42.3,30.39,SE,135,0.0,0.0,74,0.00,,,0.00,WUHU21636XXSP,2013-09-16 14:21:00,
2013-09-16 09:26:00,50.4,42.5,30.39,SE,135,0.0,0.0,74,0.00,,,0.00,WUHU21636XXSP,2013-09-16 14:26:00,
2013-09-16 09:31:00,50.7,42.8,30.39,ESE,112,0.0,0.0,74,0.00,,,0.00,WUHU21636XXSP,2013-09-16 14:31:00,
2013-09-16 09:36:00,50.9,42.7,30.39,ENE,67,0.0,0.0,73,0.00,,,0.00,WUHU21636XXSP,2013-09-16 14:36:00,
2013-09-16 09:41:00,51.3,43.1,30.39,East,90,0.0,0.0,73,0.00,,,0.00,WUHU21636XXSP,2013-09-16 14:41:00,
2013-09-16 09:46:00,51.7,43.4,30.39,ESE,112,0.0,0.0,73,0.00,,,0.00,WUHU21636XXSP,2013-09-16 14:46:00,
2013-09-16 09:51:00,51.9,42.9,30.39,SSW,202,0.8,0.8,71,0.00,,,0.00,WUHU21636XXSP,2013-09-16 14:51:00,
2013-09-16 09:56:00,52.1,43.4,30.40,SE,135,0.0,0.8,72,0.00,,,0.00,WUHU21636XXSP,2013-09-16 14:56:00,
2013-09-16 10:01:00,52.6,43.6,30.40,SE,135,0.0,0.8,71,0.00,,,0.00,WUHU21636XXSP,2013-09-16 15:01:00,
2013-09-16 10:06:00,52.8,43.0,30.40,SSW,202,0.0,0.0,69,0.00,,,0.00,WUHU21636XXSP,2013-09-16 15:06:00,
2013-09-16 10:11:00,53.2,43.4,30.40,ESE,112,0.0,0.0,69,0.00,,,0.00,WUHU21636XXSP,2013-09-16 15:11:00,
2013-09-16 10:16:00,53.5,43.7,30.39,East,90,0.0,0.0,69,0.00,,,0.00,WUHU21636XXSP,2013-09-16 15:16:00,
2013-09-16 10:21:00,54.2,44.3,30.40,SE,135,1.2,1.2,69,0.00,,,0.00,WUHU21636XXSP,2013-09-16 15:21:00,
2013-09-16 10:26:00,54.5,43.9,30.39,SE,135,0.0,1.2,67,0.00,,,0.00,WUHU21636XXSP,2013-09-16 15:26:00,
2013-09-16 10:31:00,54.7,43.7,30.39,SSE,157,0.0,0.0,66,0.00,,,0.00,WUHU21636XXSP,2013-09-16 15:31:00,
2013-09-16 10:36:00,55.3,43.9,30.39,SSE,157,0.0,0.0,65,0.00,,,0.00,WUHU21636XXSP,2013-09-16 15:36:00,
2013-09-16 10:41:00,55.4,43.2,30.39,WNW,292,0.0,0.0,63,0.00,,,0.00,WUHU21636XXSP,2013-09-16 15:41:00,
2013-09-16 10:46:00,55.4,43.2,30.39,ESE,112,0.0,0.0,63,0.00,,,0.00,WUHU21636XXSP,2013-09-16 15:46:00,
2013-09-16 10:51:00,55.7,42.5,30.39,SE,135,5.8,5.8,61,0.00,,,0.00,WUHU21636XXSP,2013-09-16 15:51:00,
2013-09-16 10:56:00,56.4,42.8,30.39,East,90,0.0,5.8,60,0.00,,,0.00,WUHU21636XXSP,2013-09-16 15:56:00,
2013-09-16 11:01:00,57.0,43.4,30.38,East,90,0.0,0.8,60,0.00,,,0.00,WUHU21636XXSP,2013-09-16 16:01:00,
2013-09-16 11:06:00,57.3,42.8,30.38,SSE,157,0.0,0.8,58,0.00,,,0.00,WUHU21636XXSP,2013-09-16 16:06:00,
2013-09-16 11:11:00,57.8,43.6,30.39,ESE,112,5.2,5.2,59,0.00,,,0.00,WUHU21636XXSP,2013-09-16 16:11:00,
2013-09-16 11:16:00,58.3,43.2,30.39,WSW,247,0.0,5.2,57,0.00,,,0.00,WUHU21636XXSP,2013-09-16 16:16:00,
2013-09-16 11:21:00,58.7,43.6,30.39,SE,135,2.6,2.6,57,0.00,,,0.00,WUHU21636XXSP,2013-09-16 16:21:00,
2013-09-16 11:26:00,58.9,44.3,30.38,ESE,112,0.0,2.6,58,0.00,,,0.00,WUHU21636XXSP,2013-09-16 16:26:00,
2013-09-16 11:31:00,59.4,43.8,30.38,SE,135,0.0,2.6,56,0.00,,,0.00,WUHU21636XXSP,2013-09-16 16:31:00,
2013-09-16 11:36:00,60.1,44.9,30.38,ESE,112,0.0,0.0,57,0.00,,,0.00,WUHU21636XXSP,2013-09-16 16:36:00,
2013-09-16 11:41:00,60.6,45.4,30.38,SE,135,0.0,0.0,57,0.00,,,0.00,WUHU21636XXSP,2013-09-16 16:41:00,
2013-09-16 11:46:00,61.0,44.8,30.38,SW,225,0.0,4.4,55,0.00,,,0.00,WUHU21636XXSP,2013-09-16 16:46:00,
2013-09-16 11:51:00,61.1,44.9,30.38,SSW,202,3.4,4.4,55,0.00,,,0.00,WUHU21636XXSP,2013-09-16 16:51:00,
2013-09-16 11:56:00,61.3,44.6,30.38,South,180,0.0,3.4,54,0.00,,,0.00,WUHU21636XXSP,2013-09-16 16:56:00,
2013-09-16 12:01:00,61.5,44.3,30.38,SE,135,0.0,0.0,53,0.00,,,0.00,WUHU21636XXSP,2013-09-16 17:01:00,
2013-09-16 12:06:00,61.7,43.5,30.38,West,270,0.0,5.8,51,0.00,,,0.00,WUHU21636XXSP,2013-09-16 17:06:00,
2013-09-16 12:11:00,61.7,42.9,30.38,SE,135,6.2,6.2,50,0.00,,,0.00,WUHU21636XXSP,2013-09-16 17:11:00,
2013-09-16 12:16:00,62.3,43.9,30.38,SE,135,0.0,6.2,51,0.00,,,0.00,WUHU21636XXSP,2013-09-16 17:16:00,
2013-09-16 12:21:00,62.9,44.0,30.38,SE,135,0.0,0.0,50,0.00,,,0.00,WUHU21636XXSP,2013-09-16 17:21:00,
2013-09-16 12:26:00,62.9,44.0,30.38,WSW,247,0.0,0.0,50,0.00,,,0.00,WUHU21636XXSP,2013-09-16 17:26:00,
2013-09-16 12:31:00,62.7,44.3,30.38,SSW,202,0.0,0.0,51,0.00,,,0.00,WUHU21636XXSP,2013-09-16 17:31:00,
2013-09-16 12:36:00,63.8,44.9,30.38,SSW,194,2.8,4.4,50,0.00,,,0.00,WUHU21636XXSP,2013-09-16 17:36:00,
2013-09-16 12:41:00,64.2,45.2,30.37,ESE,112,0.0,4.4,50,0.00,,,0.00,WUHU21636XXSP,2013-09-16 17:41:00,
2013-09-16 12:46:00,64.9,45.3,30.38,ESE,112,0.0,1.6,49,0.00,,,0.00,WUHU21636XXSP,2013-09-16 17:46:00,
2013-09-16 12:51:00,65.3,45.1,30.38,ESE,112,0.0,0.0,48,0.00,,,0.00,WUHU21636XXSP,2013-09-16 17:51:00,
2013-09-16 12:56:00,66.0,45.8,30.38,SE,135,3.0,3.0,48,0.00,,,0.00,WUHU21636XXSP,2013-09-16 17:56:00,
2013-09-16 13:01:00,66.3,45.4,30.38,SE,135,3.0,3.0,47,0.00,,,0.00,WUHU21636XXSP,2013-09-16 18:01:00,
2013-09-16 13:06:00,66.5,43.8,30.38,ESE,112,5.2,5.2,44,0.00,,,0.00,WUHU21636XXSP,2013-09-16 18:06:00,
2013-09-16 13:11:00,66.7,44.0,30.37,East,90,0.0,5.2,44,0.00,,,0.00,WUHU21636XXSP,2013-09-16 18:11:00,
2013-09-16 13:16:00,66.5,43.8,30.37,SSW,202,2.6,5.2,44,0.00,,,0.00,WUHU21636XXSP,2013-09-16 18:16:00,
2013-09-16 13:21:00,66.7,43.4,30.37,ESE,112,11.0,11.0,43,0.00,,,0.00,WUHU21636XXSP,2013-09-16 18:21:00,
2013-09-16 13:26:00,66.8,44.1,30.37,ESE,112,0.0,11.0,44,0.00,,,0.00,WUHU21636XXSP,2013-09-16 18:26:00,
2013-09-16 13:31:00,67.0,44.9,30.37,ESE,112,1.6,4.0,45,0.00,,,0.00,WUHU21636XXSP,2013-09-16 18:31:00,
2013-09-16 13:36:00,67.7,45.0,30.36,East,90,6.6,6.6,44,0.00,,,0.00,WUHU21636XXSP,2013-09-16 18:36:00,
2013-09-16 13:41:00,68.4,46.7,30.36,ESE,112,8.0,8.0,46,0.00,,,0.00,WUHU21636XXSP,2013-09-16 18:41:00,
2013-09-16 13:46:00,68.7,45.8,30.36,SE,135,0.0,8.0,44,0.00,,,0.00,WUHU21636XXSP,2013-09-16 18:46:00,
2013-09-16 13:51:00,68.9,44.7,30.36,SE,135,3.0,6.2,42,0.00,,,0.00,WUHU21636XXSP,2013-09-16 18:51:00,
2013-09-16 13:56:00,68.1,43.4,30.36,WNW,292,0.0,6.2,41,0.00,,,0.00,WUHU21636XXSP,2013-09-16 18:56:00,
2013-09-16 14:01:00,67.4,42.8,30.35,NNW,337,1.6,1.6,41,0.00,,,0.00,WUHU21636XXSP,2013-09-16 19:01:00,
2013-09-16 14:06:00,67.0,43.7,30.35,ESE,112,6.2,6.2,43,0.00,,,0.00,WUHU21636XXSP,2013-09-16 19:06:00,
2013-09-16 14:11:00,67.7,45.0,30.36,ESE,112,4.8,6.2,44,0.00,,,0.00,WUHU21636XXSP,2013-09-16 19:11:00,
2013-09-16 14:16:00,68.7,45.2,30.35,ESE,112,1.2,4.8,43,0.00,,,0.00,WUHU21636XXSP,2013-09-16 19:16:00,
2013-09-16 14:21:00,69.1,44.9,30.35,SSE,157,0.0,1.2,42,0.00,,,0.00,WUHU21636XXSP,2013-09-16 19:21:00,
2013-09-16 14:26:00,69.6,44.8,30.34,WSW,247,8.8,8.8,41,0.00,,,0.00,WUHU21636XXSP,2013-09-16 19:26:00,
2013-09-16 14:31:00,69.3,45.1,30.34,WNW,292,0.0,8.8,42,0.00,,,0.00,WUHU21636XXSP,2013-09-16 19:31:00,
2013-09-16 14:36:00,69.3,45.1,30.34,SE,135,0.0,8.8,42,0.00,,,0.00,WUHU21636XXSP,2013-09-16 19:36:00,
2013-09-16 14:41:00,69.3,45.1,30.34,NNW,337,0.0,0.0,42,0.00,,,0.00,WUHU21636XXSP,2013-09-16 19:41:00,
2013-09-16 14:46:00,69.1,44.9,30.34,West,270,0.0,0.0,42,0.00,,,0.00,WUHU21636XXSP,2013-09-16 19:46:00,
2013-09-16 14:51:00,69.3,45.8,30.34,SE,135,0.0,5.8,43,0.00,,,0.00,WUHU21636XXSP,2013-09-16 19:51:00,
2013-09-16 14:56:00,69.8,45.6,30.34,ESE,112,0.0,5.8,42,0.00,,,0.00,WUHU21636XXSP,2013-09-16 19:56:00,
2013-09-16 15:01:00,70.5,45.5,30.34,SE,135,0.0,0.0,41,0.00,,,0.00,WUHU21636XXSP,2013-09-16 20:01:00,
2013-09-16 15:06:00,70.6,47.5,30.33,SE,135,0.8,0.8,44,0.00,,,0.00,WUHU21636XXSP,2013-09-16 20:06:00,
2013-09-16 15:11:00,70.6,44.9,30.33,SE,135,0.0,0.8,40,0.00,,,0.00,WUHU21636XXSP,2013-09-16 20:11:00,
2013-09-16 15:16:00,70.8,45.8,30.33,SE,135,0.0,0.8,41,0.00,,,0.00,WUHU21636XXSP,2013-09-16 20:16:00,
2013-09-16 15:21:00,71.2,46.2,30.33,ESE,112,0.0,4.4,41,0.00,,,0.00,WUHU21636XXSP,2013-09-16 20:21:00,
2013-09-16 15:26:00,71.4,46.4,30.33,SE,135,2.2,4.4,41,0.00,,,0.00,WUHU21636XXSP,2013-09-16 20:26:00,
2013-09-16 15:31:00,71.5,45.8,30.33,ESE,112,0.0,2.2,40,0.00,,,0.00,WUHU21636XXSP,2013-09-16 20:31:00,
2013-09-16 15:36:00,71.5,47.1,30.33,SE,135,0.0,2.2,42,0.00,,,0.00,WUHU21636XXSP,2013-09-16 20:36:00,
2013-09-16 15:41:00,71.2,46.2,30.33,SW,225,0.0,0.0,41,0.00,,,0.00,WUHU21636XXSP,2013-09-16 20:41:00,
2013-09-16 15:46:00,71.2,46.2,30.32,South,180,0.0,0.0,41,0.00,,,0.00,WUHU21636XXSP,2013-09-16 20:46:00,
2013-09-16 15:51:00,71.5,47.1,30.32,ESE,112,4.8,4.8,42,0.00,,,0.00,WUHU21636XXSP,2013-09-16 20:51:00,
2013-09-16 15:56:00,71.5,45.8,30.32,ESE,112,0.0,4.8,40,0.00,,,0.00,WUHU21636XXSP,2013-09-16 20:56:00,
2013-09-16 16:01:00,71.7,47.3,30.32,ESE,112,0.0,0.0,42,0.00,,,0.00,WUHU21636XXSP,2013-09-16 21:01:00,
2013-09-16 16:06:00,71.4,45.7,30.32,SW,225,0.0,0.0,40,0.00,,,0.00,WUHU21636XXSP,2013-09-16 21:06:00,
2013-09-16 16:11:00,71.5,46.5,30.32,SW,225,0.0,0.0,41,0.00,,,0.00,WUHU21636XXSP,2013-09-16 21:11:00,
2013-09-16 16:16:00,70.8,45.8,30.31,WSW,247,0.0,0.0,41,0.00,,,0.00,WUHU21636XXSP,2013-09-16 21:16:00,
2013-09-16 16:21:00,70.5,46.8,30.31,West,270,0.0,0.0,43,0.00,,,0.00,WUHU21636XXSP,2013-09-16 21:21:00,
2013-09-16 16:26:00,70.8,46.5,30.31,ESE,112,0.0,0.0,42,0.00,,,0.00,WUHU21636XXSP,2013-09-16 21:26:00,
2013-09-16 16:31:00,70.8,46.5,30.31,ESE,112,0.0,0.0,42,0.00,,,0.00,WUHU21636XXSP,2013-09-16 21:31:00,
2013-09-16 16:36:00,70.6,45.6,30.31,ESE,112,0.0,0.0,41,0.00,,,0.00,WUHU21636XXSP,2013-09-16 21:36:00,
2013-09-16 16:41:00,70.2,47.3,30.31,South,180,0.0,0.0,44,0.00,,,0.00,WUHU21636XXSP,2013-09-16 21:41:00,
2013-09-16 16:46:00,70.5,45.5,30.31,SSW,202,0.0,0.0,41,0.00,,,0.00,WUHU21636XXSP,2013-09-16 21:46:00,
2013-09-16 16:51:00,69.3,46.4,30.31,SSW,202,0.0,0.0,44,0.00,,,0.00,WUHU21636XXSP,2013-09-16 21:51:00,
2013-09-16 16:56:00,69.5,46.6,30.31,SSW,202,0.0,0.0,44,0.00,,,0.00,WUHU21636XXSP,2013-09-16 21:56:00,
2013-09-16 17:01:00,69.6,47.3,30.31,SSW,202,0.0,0.0,45,0.00,,,0.00,WUHU21636XXSP,2013-09-16 22:01:00,
2013-09-16 17:06:00,69.6,47.9,30.31,SSW,202,0.0,0.0,46,0.00,,,0.00,WUHU21636XXSP,2013-09-16 22:06:00,
2013-09-16 17:11:00,69.6,47.3,30.30,SW,225,0.0,0.0,45,0.00,,,0.00,WUHU21636XXSP,2013-09-16 22:11:00,
2013-09-16 17:16:00,68.9,47.2,30.30,SSE,157,0.0,0.0,46,0.00,,,0.00,WUHU21636XXSP,2013-09-16 22:16:00,
2013-09-16 17:21:00,68.7,47.0,30.30,SSE,157,0.0,0.0,46,0.00,,,0.00,WUHU21636XXSP,2013-09-16 22:21:00,
2013-09-16 17:26:00,68.4,46.7,30.30,SSE,157,0.0,0.0,46,0.00,,,0.00,WUHU21636XXSP,2013-09-16 22:26:00,
2013-09-16 17:31:00,67.7,46.8,30.30,SE,135,0.0,0.0,47,0.00,,,0.00,WUHU21636XXSP,2013-09-16 22:31:00,
2013-09-16 17:36:00,67.0,46.7,30.30,SE,135,0.0,0.0,48,0.00,,,0.00,WUHU21636XXSP,2013-09-16 22:36:00,
2013-09-16 17:41:00,66.8,47.0,30.29,SE,135,0.0,0.0,49,0.00,,,0.00,WUHU21636XXSP,2013-09-16 22:41:00,
2013-09-16 17:46:00,66.0,46.9,30.29,SE,135,0.0,0.0,50,0.00,,,0.00,WUHU21636XXSP,2013-09-16 22:46:00,
2013-09-16 17:51:00,66.0,48.0,30.29,SE,135,0.0,0.0,52,0.00,,,0.00,WUHU21636XXSP,2013-09-16 22:51:00,
2013-09-16 17:56:00,65.5,48.0,30.29,SE,135,0.0,0.0,53,0.00,,,0.00,WUHU21636XXSP,2013-09-16 22:56:00,
2013-09-16 18:02:00,64.8,47.8,30.29,SE,135,0.0,0.0,54,0.00,,,0.00,WUHU21636XXSP,2013-09-16 23:02:00,
2013-09-16 18:07:00,64.6,47.6,30.29,SE,135,0.0,0.0,54,0.00,,,0.00,WUHU21636XXSP,2013-09-16 23:07:00,
2013-09-16 18:12:00,64.2,48.2,30.28,SE,135,0.0,0.0,56,0.00,,,0.00,WUHU21636XXSP,2013-09-16 23:12:00,
2013-09-16 18:17:00,63.4,47.6,30.29,SE,135,0.0,0.0,56,0.00,,,0.00,WUHU21636XXSP,2013-09-16 23:17:00,
2013-09-16 18:22:00,63.0,47.6,30.29,SE,135,0.0,0.0,57,0.00,,,0.00,WUHU21636XXSP,2013-09-16 23:22:00,
2013-09-16 18:27:00,62.7,47.3,30.29,SE,135,0.0,0.0,57,0.00,,,0.00,WUHU21636XXSP,2013-09-16 23:27:00,
2013-09-16 18:32:00,62.3,47.4,30.29,SE,135,0.0,0.0,58,0.00,,,0.00,WUHU21636XXSP,2013-09-16 23:32:00,
2013-09-16 18:37:00,62.1,47.7,30.29,SE,135,0.0,0.0,59,0.00,,,0.00,WUHU21636XXSP,2013-09-16 23:37:00,
2013-09-16 18:42:00,61.7,47.4,30.29,SE,135,0.0,0.0,59,0.00,,,0.00,WUHU21636XXSP,2013-09-16 23:42:00,
2013-09-16 18:47:00,61.5,47.6,30.29,SE,135,0.0,0.0,60,0.00,,,0.00,WUHU21636XXSP,2013-09-16 23:47:00,
2013-09-16 18:52:00,61.1,47.7,30.28,SE,135,0.0,0.0,61,0.00,,,0.00,WUHU21636XXSP,2013-09-16 23:52:00,
2013-09-16 18:57:00,60.8,47.4,30.28,SE,135,0.0,0.0,61,0.00,,,0.00,WUHU21636XXSP,2013-09-16 23:57:00,
2013-09-16 19:02:00,60.4,47.4,30.28,SE,135,0.0,0.0,62,0.00,,,0.00,WUHU21636XXSP,2013-09-17 00:02:00,
2013-09-16 19:07:00,60.1,47.1,30.28,SE,135,0.0,0.0,62,0.00,,,0.00,WUHU21636XXSP,2013-09-17 00:07:00,
2013-09-16 19:12:00,59.6,47.2,30.28,SE,135,0.0,0.0,63,0.00,,,0.00,WUHU21636XXSP,2013-09-17 00:12:00,
2013-09-16 19:17:00,59.1,47.1,30.28,SE,135,0.0,0.0,64,0.00,,,0.00,WUHU21636XXSP,2013-09-17 00:17:00,
2013-09-16 19:22:00,58.7,46.7,30.29,SE,135,0.0,0.0,64,0.00,,,0.00,WUHU21636XXSP,2013-09-17 00:22:00,
2013-09-16 19:27:00,58.5,46.5,30.29,SE,135,0.0,0.0,64,0.00,,,0.00,WUHU21636XXSP,2013-09-17 00:27:00,
2013-09-16 19:32:00,58.0,46.4,30.29,SE,135,0.0,0.0,65,0.00,,,0.00,WUHU21636XXSP,2013-09-17 00:32:00,
2013-09-16 19:37:00,57.3,46.2,30.29,SE,135,0.0,0.0,66,0.00,,,0.00,WUHU21636XXSP,2013-09-17 00:37:00,
2013-09-16 19:42:00,57.0,45.9,30.29,SE,135,0.0,0.0,66,0.00,,,0.00,WUHU21636XXSP,2013-09-17 00:42:00,
2013-09-16 19:47:00,56.4,45.3,30.29,SE,135,0.0,0.0,66,0.00,,,0.00,WUHU21636XXSP,2013-09-17 00:47:00,
2013-09-16 19:52:00,56.1,45.4,30.29,SE,135,0.0,0.0,67,0.00,,,0.00,WUHU21636XXSP,2013-09-17 00:52:00,
2013-09-16 19:57:00,55.9,45.6,30.29,SE,135,0.0,0.0,68,0.00,,,0.00,WUHU21636XXSP,2013-09-17 00:57:00,
2013-09-16 20:02:00,55.7,45.4,30.29,SE,135,0.0,0.0,68,0.00,,,0.00,WUHU21636XXSP,2013-09-17 01:02:00,
2013-09-16 20:07:00,55.3,45.1,30.29,SE,135,0.0,0.0,68,0.00,,,0.00,WUHU21636XXSP,2013-09-17 01:07:00,
2013-09-16 20:12:00,55.1,44.9,30.29,SE,135,0.0,0.0,68,0.00,,,0.00,WUHU21636XXSP,2013-09-17 01:12:00,
2013-09-16 20:17:00,54.5,44.7,30.29,SE,135,0.0,0.0,69,0.00,,,0.00,WUHU21636XXSP,2013-09-17 01:17:00,
2013-09-16 20:22:00,54.2,44.7,30.29,SE,135,0.0,0.0,70,0.00,,,0.00,WUHU21636XXSP,2013-09-17 01:22:00,
2013-09-16 20:27:00,54.0,44.5,30.29,SE,135,0.0,0.0,70,0.00,,,0.00,WUHU21636XXSP,2013-09-17 01:27:00,
2013-09-16 20:32:00,53.8,44.3,30.29,SE,135,0.0,0.0,70,0.00,,,0.00,WUHU21636XXSP,2013-09-17 01:32:00,
2013-09-16 20:37:00,53.4,44.0,30.29,SE,135,0.0,0.0,70,0.00,,,0.00,WUHU21636XXSP,2013-09-17 01:37:00,
2013-09-16 20:42:00,53.0,43.6,30.29,SE,135,0.0,0.0,70,0.00,,,0.00,WUHU21636XXSP,2013-09-17 01:42:00,
2013-09-16 20:47:00,52.8,43.8,30.29,SE,135,0.0,0.0,71,0.00,,,0.00,WUHU21636XXSP,2013-09-17 01:47:00,
2013-09-16 20:52:00,52.6,43.9,30.29,SE,135,0.0,0.0,72,0.00,,,0.00,WUHU21636XXSP,2013-09-17 01:52:00,
2013-09-16 20:57:00,52.5,43.8,30.29,SE,135,0.0,0.0,72,0.00,,,0.00,WUHU21636XXSP,2013-09-17 01:57:00,
2013-09-16 21:02:00,52.1,43.8,30.29,SE,135,0.0,0.0,73,0.00,,,0.00,WUHU21636XXSP,2013-09-17 02:02:00,
2013-09-16 21:07:00,51.9,43.6,30.29,SE,135,0.0,0.0,73,0.00,,,0.00,WUHU21636XXSP,2013-09-17 02:07:00,
2013-09-16 21:12:00,51.7,43.4,30.29,SE,135,0.0,0.0,73,0.00,,,0.00,WUHU21636XXSP,2013-09-17 02:12:00,
2013-09-16 21:17:00,51.7,43.7,30.29,SE,135,0.0,0.0,74,0.00,,,0.00,WUHU21636XXSP,2013-09-17 02:17:00,
2013-09-16 21:22:00,51.3,43.4,30.29,SE,135,0.0,0.0,74,0.00,,,0.00,WUHU21636XXSP,2013-09-17 02:22:00,
2013-09-16 21:27:00,51.3,43.4,30.29,SE,135,0.0,0.0,74,0.00,,,0.00,WUHU21636XXSP,2013-09-17 02:27:00,
2013-09-16 21:32:00,50.9,43.4,30.29,SE,135,0.0,0.0,75,0.00,,,0.00,WUHU21636XXSP,2013-09-17 02:32:00,
2013-09-16 21:37:00,50.9,43.7,30.29,SE,135,0.0,0.0,76,0.00,,,0.00,WUHU21636XXSP,2013-09-17 02:37:00,
2013-09-16 21:42:00,50.9,43.7,30.30,SE,135,0.0,0.0,76,0.00,,,0.00,WUHU21636XXSP,2013-09-17 02:42:00,
2013-09-16 21:47:00,50.7,43.8,30.30,SE,135,0.0,0.0,77,0.00,,,0.00,WUHU21636XXSP,2013-09-17 02:47:00,
2013-09-16 21:52:00,50.7,43.8,30.30,SE,135,0.0,0.0,77,0.00,,,0.00,WUHU21636XXSP,2013-09-17 02:52:00,
2013-09-16 21:57:00,50.4,43.5,30.30,SE,135,0.0,0.0,77,0.00,,,0.00,WUHU21636XXSP,2013-09-17 02:57:00,
2013-09-16 22:02:00,50.4,43.5,30.30,SE,135,0.0,0.0,77,0.00,,,0.00,WUHU21636XXSP,2013-09-17 03:02:00,
2013-09-16 22:07:00,50.0,43.4,30.30,SE,135,0.0,0.0,78,0.00,,,0.00,WUHU21636XXSP,2013-09-17 03:07:00,
2013-09-16 22:12:00,50.0,43.4,30.30,SE,135,0.0,0.0,78,0.00,,,0.00,WUHU21636XXSP,2013-09-17 03:12:00,
2013-09-16 22:17:00,49.8,43.2,30.30,SE,135,0.0,0.0,78,0.00,,,0.00,WUHU21636XXSP,2013-09-17 03:17:00,
2013-09-16 22:22:00,49.8,43.2,30.30,SE,135,0.0,0.0,78,0.00,,,0.00,WUHU21636XXSP,2013-09-17 03:22:00,
2013-09-16 22:27:00,49.7,43.1,30.30,SE,135,0.0,0.0,78,0.00,,,0.00,WUHU21636XXSP,2013-09-17 03:27:00,
2013-09-16 22:32:00,49.7,43.1,30.30,SE,135,0.0,0.0,78,0.00,,,0.00,WUHU21636XXSP,2013-09-17 03:32:00,
2013-09-16 22:37:00,49.7,43.1,30.30,SE,135,0.0,0.0,78,0.00,,,0.00,WUHU21636XXSP,2013-09-17 03:37:00,
2013-09-16 22:42:00,49.5,43.3,30.30,SE,135,0.0,0.0,79,0.00,,,0.00,WUHU21636XXSP,2013-09-17 03:42:00,
2013-09-16 22:47:00,49.5,43.3,30.30,SE,135,0.0,0.0,79,0.00,,,0.00,WUHU21636XXSP,2013-09-17 03:47:00,
2013-09-16 22:52:00,49.2,43.1,30.30,SE,135,0.0,0.0,79,0.00,,,0.00,WUHU21636XXSP,2013-09-17 03:52:00,
2013-09-16 22:57:00,49.0,42.8,30.31,SE,135,0.0,0.0,79,0.00,,,0.00,WUHU21636XXSP,2013-09-17 03:57:00,
2013-09-16 23:01:00,49.0,42.8,30.30,SE,135,0.0,0.0,79,0.00,,,0.00,WUHU21636XXSP,2013-09-17 04:01:00,
2013-09-16 23:02:00,49.0,42.8,30.30,SE,135,0.0,0.0,79,0.00,,,0.00,WUHU21636XXSP,2013-09-17 04:02:00,
2013-09-16 23:07:00,48.8,42.6,30.30,SE,135,0.0,0.0,79,0.00,,,0.00,WUHU21636XXSP,2013-09-17 04:07:00,
2013-09-16 23:12:00,48.8,43.0,30.30,SE,135,0.0,0.0,80,0.00,,,0.00,WUHU21636XXSP,2013-09-17 04:12:00,
2013-09-16 23:17:00,48.8,43.0,30.30,SE,135,0.0,0.0,80,0.00,,,0.00,WUHU21636XXSP,2013-09-17 04:17:00,
2013-09-16 23:22:00,48.8,43.0,30.30,SE,135,0.0,0.0,80,0.00,,,0.00,WUHU21636XXSP,2013-09-17 04:22:00,
2013-09-16 23:27:00,48.8,43.0,30.30,SE,135,0.0,0.0,80,0.00,,,0.00,WUHU21636XXSP,2013-09-17 04:27:00,
2013-09-16 23:32:00,48.7,42.9,30.30,SE,135,0.0,0.0,80,0.00,,,0.00,WUHU21636XXSP,2013-09-17 04:32:00,
2013-09-16 23:37:00,48.7,42.9,30.29,SE,135,0.0,0.0,80,0.00,,,0.00,WUHU21636XXSP,2013-09-17 04:37:00,
2013-09-16 23:42:00,48.7,42.9,30.29,SE,135,0.0,0.0,80,0.00,,,0.00,WUHU21636XXSP,2013-09-17 04:42:00,
2013-09-16 23:47:00,48.5,42.7,30.30,SE,135,0.0,0.0,80,0.00,,,0.00,WUHU21636XXSP,2013-09-17 04:47:00,
2013-09-16 23:52:00,48.5,42.7,30.30,SE,135,0.0,0.0,80,0.00,,,0.00,WUHU21636XXSP,2013-09-17 04:52:00,
2013-09-16 23:57:00,48.5,42.7,30.31,SE,135,0.0,0.0,80,0.00,,,0.00,WUHU21636XXSP,2013-09-17 04:57:00,